[[{"header":{"parameterUnit":"m.s-1","parameterCategory":1,"la1":30.2991,"la2":30.254,"lo1":-89.0895,"lo2":-89.0444,"dy":0.0017,"dx":0.0017,"nx":28,"ny":28,"refTime":"2024-08-01T09:00:00:Z","depth":0,"parameterNumber":2,"parameterNumberName":"U-component_of_WINDS"},"data":[0,0,0,0,0,0,0,0,0,0,0,0,0,0,0,0,0,0,0,0,0,0,0,0,0,0,0,0,0,0,0,0,0,0,0,0,0,0,0,0,0,0,0,0,0,0,0,0,0,0,0,0,0,0,0,0,0,0,3.0218,3.0219,0,3.0288,3.0289,3.029,3.0264,3.0262,3.026,3.0259,3.0333,3.0336,3.034,0,0,0,0,0,0,0,0,0,0,0,0,0,3.0066,3.0069,3.0218,3.0219,3.022,3.0288,3.0289,3.029,3.0264,3.0262,3.026,3.0258,3.0332,3.0336,3.034,0,0,0,0,0,0,0,0,0,0,0,0,0,3.0133,3.007,3.0218,3.0215,3.0215,3.0288,3.0289,3.029,3.0264,3.0262,3.0259,3.0257,3.033,3.0335,3.034,3.042,0,0,3.0356,3.0359,0,0,0,0,0,0,0,0,3.013,3.0139,3.0215,3.0215,3.0216,3.0265,3.0262,3.0334,3.0265,3.0246,3.0259,3.0256,3.0312,3.0319,3.0337,3.0424,3.0427,3.0357,3.036,3.0362,3.0364,0,0,0,0,0,0,0,3.0125,3.0136,3.0246,3.0216,3.0217,3.0211,3.0218,3.0276,3.0292,3.0247,3.0246,3.0254,3.0312,3.0332,3.0339,3.0428,3.0357,3.0361,3.0364,3.0366,3.0588,3.059,0,0,0,0,0,0,3.012,3.0132,3.0244,3.0248,3.0166,3.0216,3.0224,3.0251,3.0291,3.0295,3.0256,3.0253,3.0325,3.0333,3.0341,3.044,3.0362,3.0367,3.037,3.0585,3.0588,3.0591,0,0,0,0,0,0,3.0116,3.013,3.0241,3.019,3.0203,3.0221,3.0252,3.0254,3.0274,3.0298,3.0301,3.0273,3.0323,3.0334,3.0402,3.0442,3.0369,3.0374,3.0582,3.0586,3.059,3.0636,0,0,0,0,0,0,3.0112,3.0129,3.0158,3.019,3.0206,3.0299,3.0255,3.0257,3.0283,3.0279,3.0315,3.0318,3.0322,3.0394,3.0407,3.0448,3.0378,3.0578,3.0583,3.0588,3.0631,3.0641,3.065,0,0,0,0,0,3.0107,3.0168,3.016,3.0173,3.0243,3.0301,3.031,3.0312,3.0286,3.0317,3.0332,3.0317,3.0435,3.0401,3.0415,3.0458,3.0575,3.0582,3.0588,3.0627,3.0639,3.065,0,0,0,0,0,0,3.014,3.0172,3.0163,3.0237,3.0266,3.0296,3.0335,3.0325,3.0363,3.0358,3.036,3.0369,3.0439,3.0455,3.0417,3.0539,3.0502,3.0511,3.0526,3.0538,3.0547,3.0543,3.0382,0,0,0,0,0,3.0156,3.0199,3.0225,3.0288,3.0303,3.0317,3.0342,3.0341,3.0372,3.0385,3.0405,3.0437,3.0481,3.051,3.0552,3.0633,3.0642,3.067,3.0679,3.0687,3.0695,3.0742,3.0756,3.0612,3.0611,3.0611,0,0,3.019,3.0212,3.024,3.0295,3.0318,3.0365,3.0327,3.0377,3.0412,3.0393,3.0458,3.0475,3.051,3.0585,3.0619,3.0601,3.0737,3.0695,3.0701,3.0705,3.075,3.0764,3.0776,3.0616,3.0615,3.0614,0,0,3.0274,3.0295,3.0351,3.0375,3.041,3.0419,3.0432,3.0465,3.0475,3.054,3.0528,3.057,3.0645,3.0672,3.0696,3.0794,3.0782,3.0807,3.0857,3.0903,3.0914,3.0924,3.0961,3.0974,3.0815,3.0816,3.0816,0,3.0312,3.038,3.038,3.0432,3.0458,3.0443,3.0501,3.0524,3.0571,3.0591,3.0569,3.0666,3.0688,3.0771,3.0795,3.0814,3.0831,3.0803,3.0912,3.0922,3.0932,3.0967,3.0981,3.0819,3.0818,3.0818,3.0818,0,3.0425,3.0473,3.0514,3.056,3.0591,3.0645,3.0656,3.0687,3.0684,3.0696,3.0765,3.0792,3.084,3.086,3.0857,3.0943,3.0931,3.0911,3.0873,3.0949,3.0982,3.0995,3.0823,3.0822,3.0821,3.082,0,0,3.0532,3.058,3.0595,3.0617,3.0656,3.0694,3.0749,3.0796,3.0824,3.0857,3.0905,3.0971,3.0953,3.098,3.0981,3.102,3.11,3.0996,3.0997,3.1016,3.1198,3.1214,3.123,3.1092,3.1094,3.1096,3.1196,0,3.0622,3.0717,3.072,3.0808,3.0854,3.0841,3.0889,3.092,3.0933,3.0974,3.0989,3.1037,3.1009,3.1025,3.1064,3.1082,3.1136,3.1074,3.1138,3.114,3.1131,3.1247,3.1263,3.1356,3.1209,3.1211,3.1213,0,3.0738,3.0776,3.0869,3.0904,3.0923,3.0966,3.1011,3.105,3.1085,3.1092,3.1124,3.1119,3.1178,3.1137,3.1219,3.1177,3.1203,3.1216,3.122,3.1227,3.1182,3.1259,3.1385,3.14,3.1233,3.1231,3.123,0,3.081,3.0884,3.095,3.0969,3.101,3.1042,3.1061,3.1093,3.1122,3.1162,3.1181,3.1227,3.1253,3.1289,3.1298,3.1268,3.1381,3.1341,3.139,3.139,3.1415,3.1414,3.155,3.143,3.143,3.1429,3.1429,0,3.091,3.0968,3.0983,3.1023,3.1089,3.1093,3.1157,3.1174,3.1204,3.1249,3.124,3.1283,3.1292,3.1337,3.1344,3.1412,3.1424,3.1432,3.1434,3.1434,3.1433,3.1452,3.1447,3.1433,3.1432,3.1432,3.1431,0,3.1001,3.1013,3.1084,3.1118,3.1128,3.1175,3.1205,3.1245,3.1258,3.1315,3.1329,3.1349,3.1402,3.1415,3.1477,3.1483,3.1564,3.1558,3.1552,3.1552,3.1602,3.1597,3.1755,3.1777,3.1642,3.1643,3.1644,0,3.1065,3.1109,3.1149,3.1178,3.1198,3.1246,3.1276,3.1282,3.1314,3.1358,3.1394,3.1446,3.1487,3.1573,3.1594,3.1643,3.164,3.1692,3.1647,3.1647,3.1643,3.1641,3.1647,3.1701,3.1702,3.1703,3.1704,0,3.1178,3.1182,3.1225,3.1271,3.1307,3.1344,3.1379,3.1404,3.1416,3.1452,3.1506,3.1539,3.1604,3.1656,3.1706,3.1727,3.1719,3.1718,3.1733,3.1734,3.1729,3.1735,3.1577,3.1715,3.1714,3.1713,3.1712,3.1712,3.1259,3.1298,3.1333,3.1382,3.1409,3.1443,3.1483,3.1501,3.1545,3.1599,3.16,3.166,3.1696,3.1762,3.1786,3.1834,3.1818,3.1838,3.1844,3.1849,3.1854,3.1721,3.1842,3.1842,3.1842,3.1842,3.1841,0,3.1373,3.1395,3.144,3.149,3.1529,3.1517,3.1556,3.159,3.1642,3.1676,3.1718,3.1782,3.1833,3.1859,3.1911,3.1944,3.1942,3.1958,3.1956,3.1962,3.1864,3.1848,3.1959,3.1959,3.1959,3.1959,3.1959,3.1959,3.1437,3.1505,3.1513,3.1595,3.1617,3.1675,3.1698,3.173,3.1758,3.1829,3.1871,3.1888,3.192,3.1974,3.2021,3.2028,3.2048,3.2066,3.2071,3.198,3.1968,3.1957,3.1941,3.207,3.207,3.2165,3.2166,3.2166]},{"header":{"parameterUnit":"m.s-1","parameterCategory":1,"la1":30.2991,"la2":30.254,"lo1":-89.0895,"lo2":-89.0444,"dy":0.0017,"dx":0.0017,"nx":28,"ny":28,"refTime":"2024-08-01T09:00:00:Z","depth":0,"parameterNumber":3,"parameterNumberName":"V-component_of_WINDS"},"data":[0,0,0,0,0,0,0,0,0,0,0,0,0,0,0,0,0,0,0,0,0,0,0,0,0,0,0,0,0,0,0,0,0,0,0,0,0,0,0,0,0,0,0,0,0,0,0,0,0,0,0,0,0,0,0,0,0,0,-1.9004,-1.9004,0,-1.8989,-1.8988,-1.8988,-1.899,-1.899,-1.899,-1.8991,-1.8972,-1.8971,-1.8971,0,0,0,0,0,0,0,0,0,0,0,0,0,-1.9035,-1.9034,-1.9004,-1.9004,-1.9004,-1.8989,-1.8988,-1.8988,-1.899,-1.899,-1.899,-1.8991,-1.8972,-1.8971,-1.8971,0,0,0,0,0,0,0,0,0,0,0,0,0,-1.9021,-1.9034,-1.9004,-1.9003,-1.9003,-1.8989,-1.8988,-1.8988,-1.899,-1.899,-1.899,-1.8991,-1.8973,-1.8972,-1.897,-1.8956,0,0,-1.8967,-1.8967,0,0,0,0,0,0,0,0,-1.9021,-1.9019,-1.9003,-1.9003,-1.9003,-1.8992,-1.8992,-1.8977,-1.899,-1.8995,-1.8991,-1.8991,-1.8978,-1.8977,-1.8973,-1.8955,-1.8954,-1.8967,-1.8966,-1.8966,-1.8966,0,0,0,0,0,0,0,-1.9022,-1.902,-1.8998,-1.9003,-1.9003,-1.9003,-1.9001,-1.899,-1.8984,-1.8994,-1.8994,-1.8992,-1.8978,-1.8974,-1.8972,-1.8954,-1.8967,-1.8966,-1.8965,-1.8965,-1.8927,-1.8926,0,0,0,0,0,0,-1.9024,-1.9021,-1.8998,-1.8997,-1.9013,-1.9002,-1.9,-1.8995,-1.8984,-1.8983,-1.8992,-1.8993,-1.8975,-1.8974,-1.8972,-1.8956,-1.8966,-1.8965,-1.8964,-1.8927,-1.8927,-1.8926,0,0,0,0,0,0,-1.9025,-1.9022,-1.8999,-1.9009,-1.9006,-1.9001,-1.8995,-1.8994,-1.899,-1.8983,-1.8982,-1.8989,-1.8976,-1.8973,-1.8961,-1.8955,-1.8964,-1.8963,-1.8927,-1.8927,-1.8926,-1.8923,0,0,0,0,0,0,-1.9025,-1.9022,-1.9016,-1.9009,-1.9006,-1.8988,-1.8995,-1.8994,-1.8988,-1.8989,-1.898,-1.8978,-1.8976,-1.8962,-1.896,-1.8954,-1.8963,-1.8928,-1.8927,-1.8927,-1.8923,-1.8922,-1.8921,0,0,0,0,0,-1.9027,-1.9015,-1.9016,-1.9013,-1.8999,-1.8988,-1.8986,-1.8984,-1.8988,-1.8982,-1.8978,-1.8979,-1.8956,-1.8961,-1.8958,-1.8952,-1.8928,-1.8927,-1.8927,-1.8924,-1.8922,-1.8921,0,0,0,0,0,0,-1.902,-1.9014,-1.9015,-1.9001,-1.8995,-1.8988,-1.8981,-1.8982,-1.8974,-1.8975,-1.8972,-1.897,-1.8958,-1.8953,-1.8959,-1.8938,-1.8943,-1.8941,-1.8942,-1.894,-1.8939,-1.894,-1.8962,0,0,0,0,0,-1.9018,-1.901,-1.9004,-1.8992,-1.899,-1.8986,-1.8981,-1.8981,-1.8974,-1.8971,-1.8966,-1.8959,-1.8951,-1.8945,-1.8937,-1.8923,-1.8922,-1.8917,-1.8916,-1.8915,-1.8914,-1.8908,-1.8906,-1.8924,-1.8924,-1.8924,0,0,-1.9011,-1.9007,-1.9002,-1.8991,-1.8987,-1.8979,-1.8984,-1.8975,-1.8969,-1.8969,-1.8958,-1.8954,-1.8947,-1.8934,-1.8928,-1.893,-1.8909,-1.8914,-1.8914,-1.8913,-1.8907,-1.8905,-1.8904,-1.8923,-1.8923,-1.8923,0,0,-1.8996,-1.8991,-1.8982,-1.8978,-1.8972,-1.897,-1.8968,-1.8961,-1.8959,-1.8948,-1.8949,-1.8942,-1.8927,-1.8922,-1.8918,-1.8904,-1.8904,-1.8901,-1.8895,-1.8889,-1.8888,-1.8887,-1.8882,-1.8881,-1.89,-1.89,-1.89,0,-1.8988,-1.8977,-1.8977,-1.8968,-1.8964,-1.8966,-1.8957,-1.8953,-1.8944,-1.8941,-1.8943,-1.8927,-1.8921,-1.8908,-1.8905,-1.8901,-1.8899,-1.8902,-1.8888,-1.8887,-1.8886,-1.8882,-1.888,-1.89,-1.89,-1.89,-1.89,0,-1.8969,-1.8961,-1.8954,-1.8947,-1.8942,-1.8933,-1.8932,-1.8927,-1.8927,-1.8925,-1.8915,-1.8909,-1.8901,-1.8898,-1.8897,-1.8885,-1.8887,-1.8889,-1.8893,-1.8884,-1.888,-1.8879,-1.8899,-1.8899,-1.8899,-1.8899,0,0,-1.8947,-1.8942,-1.894,-1.8938,-1.8932,-1.8926,-1.8918,-1.8911,-1.8907,-1.8902,-1.8895,-1.8884,-1.8887,-1.8882,-1.8881,-1.8876,-1.8867,-1.8879,-1.8878,-1.8877,-1.8855,-1.8853,-1.8851,-1.8867,-1.8867,-1.8867,-1.8856,0,-1.8932,-1.8918,-1.8919,-1.8906,-1.89,-1.8903,-1.8896,-1.8892,-1.889,-1.8885,-1.8883,-1.8875,-1.8879,-1.8876,-1.8871,-1.8869,-1.8862,-1.887,-1.8861,-1.8861,-1.8863,-1.8849,-1.8847,-1.8837,-1.8854,-1.8854,-1.8853,0,-1.8911,-1.8907,-1.8894,-1.8892,-1.8889,-1.8883,-1.8878,-1.8872,-1.8868,-1.8868,-1.8864,-1.8864,-1.8857,-1.8862,-1.8852,-1.8857,-1.8854,-1.8852,-1.8852,-1.8851,-1.8856,-1.8848,-1.8833,-1.8832,-1.8851,-1.8851,-1.8851,0,-1.8898,-1.8889,-1.8881,-1.8878,-1.8875,-1.8871,-1.8869,-1.8866,-1.8863,-1.8858,-1.8856,-1.885,-1.8847,-1.8843,-1.8842,-1.8846,-1.8832,-1.8837,-1.8832,-1.8832,-1.8828,-1.8828,-1.8813,-1.8826,-1.8826,-1.8826,-1.8826,0,-1.8881,-1.8873,-1.8875,-1.887,-1.8861,-1.8863,-1.8854,-1.8853,-1.8851,-1.8845,-1.8847,-1.8842,-1.8842,-1.8837,-1.8836,-1.8829,-1.8827,-1.8827,-1.8827,-1.8826,-1.8827,-1.8824,-1.8825,-1.8826,-1.8826,-1.8826,-1.8826,0,-1.8864,-1.8865,-1.8856,-1.8855,-1.8854,-1.8849,-1.8847,-1.8843,-1.8842,-1.8836,-1.8834,-1.8834,-1.8828,-1.8827,-1.882,-1.882,-1.8811,-1.8812,-1.8813,-1.8813,-1.8808,-1.8809,-1.879,-1.8788,-1.8803,-1.8802,-1.8802,0,-1.8853,-1.8848,-1.8846,-1.8844,-1.8842,-1.8837,-1.8835,-1.8836,-1.8833,-1.883,-1.8826,-1.8821,-1.8817,-1.8808,-1.8807,-1.8802,-1.8803,-1.8797,-1.8802,-1.8803,-1.8803,-1.8804,-1.8804,-1.8795,-1.8795,-1.8795,-1.8795,0,-1.8834,-1.8835,-1.8831,-1.8829,-1.8826,-1.8823,-1.882,-1.8818,-1.882,-1.8816,-1.8811,-1.8809,-1.8803,-1.8798,-1.8794,-1.8792,-1.8794,-1.8794,-1.8792,-1.8792,-1.8793,-1.8793,-1.881,-1.8794,-1.8794,-1.8794,-1.8794,-1.8794,-1.882,-1.8816,-1.8815,-1.8811,-1.881,-1.8809,-1.8805,-1.8805,-1.8801,-1.8797,-1.8799,-1.8794,-1.8792,-1.8787,-1.8785,-1.8781,-1.8783,-1.8781,-1.878,-1.878,-1.878,-1.8794,-1.878,-1.878,-1.878,-1.878,-1.878,0,-1.8801,-1.8802,-1.8798,-1.8796,-1.8794,-1.8797,-1.8795,-1.8793,-1.8789,-1.8787,-1.8784,-1.8779,-1.8776,-1.8775,-1.8771,-1.8768,-1.8769,-1.8767,-1.8768,-1.8767,-1.8777,-1.8779,-1.8767,-1.8767,-1.8767,-1.8767,-1.8767,-1.8767,-1.8791,-1.8785,-1.8787,-1.8781,-1.8781,-1.8777,-1.8776,-1.8774,-1.8774,-1.8769,-1.8766,-1.8766,-1.8765,-1.8762,-1.8759,-1.8759,-1.8758,-1.8756,-1.8756,-1.8765,-1.8766,-1.8768,-1.877,-1.8755,-1.8755,-1.8746,-1.8746,-1.8746]}]]